Location: Columbia
(38.9520°N, 92.3340°W)
Time: 19:09:58
(UTC-05:00)

CZ-2C R/B - Visible Passes

Search period start: 29 August 2014 00:00
Search period end: 08 September 2014 00:00
Orbit: 705 x 910 km, 98.1° (Epoch: 29 August)

Date Brightness Start Highest point End Pass type
(mag) Time Alt. Az. Time Alt. Az. Time Alt. Az.
29 Aug 3.7 03:52:10 40° ESE 03:53:19 48° ENE 03:58:03 10° N visible
29 Aug 4.4 05:33:16 16° W 05:33:32 16° W 05:36:32 10° NW visible
30 Aug 4.7 03:27:30 24° E 03:28:59 28° ENE 03:33:10 10° N visible
30 Aug 3.7 05:08:36 28° W 05:08:49 28° W 05:13:03 10° NW visible
31 Aug 5.4 03:02:51 14° E 03:04:45 17° ENE 03:07:54 10° NNE visible
31 Aug 3.0 04:43:56 50° WSW 04:44:11 50° W 04:49:01 10° NNW visible
01 Sep 2.8 04:19:17 77° S 04:19:39 89° WSW 04:24:40 10° NNW visible
02 Sep 3.6 03:54:37 49° E 03:55:13 52° ENE 04:00:05 10° N visible
02 Sep 4.5 05:35:43 15° W 05:35:43 15° W 05:38:23 10° NW visible
03 Sep 4.6 03:29:58 28° E 03:30:53 30° ENE 03:35:15 10° N visible
03 Sep 3.9 05:11:03 27° W 05:11:03 27° W 05:14:59 10° NW visible
04 Sep 5.3 03:05:18 17° E 03:06:39 19° ENE 03:10:04 10° NNE visible
04 Sep 3.2 04:46:24 47° W 04:46:24 47° W 04:50:59 10° NNW visible
05 Sep 5.8 02:41:09 10° ENE 02:42:31 11° ENE 02:43:53 10° NE visible
05 Sep 2.8 04:21:44 81° NW 04:21:44 81° NW 04:26:41 10° NNW visible
06 Sep 3.5 03:57:05 56° ENE 03:57:07 56° ENE 04:02:08 10° N visible
06 Sep 4.6 05:38:10 14° W 05:38:10 14° W 05:40:14 10° NW visible
07 Sep 4.4 03:32:25 33° ENE 03:32:46 33° ENE 03:37:21 10° N visible
07 Sep 4.1 05:13:31 25° WNW 05:13:31 25° WNW 05:16:56 10° NW visible
